QPF
0.00 0.00 0.00 0.00 0.00 0.01 0.01 0.01 0.01 0.01 0.00 0.00 0.00 0.00 0.00 0.01 0.01 0.02 0.03 0.03 0.03 0.03 0.03 0.03 0.04 0.05 0.07 0.08 0.09 0.11 0.14 0.16 0.15 0.12 0.12 0.12 0.13 0.15 0.12 0.10 0.09 0.07 0.06
0.00 0.00 0.00 0.00 0.00 0.01 0.01 0.01 0.01 0.01 0.00 0.00 0.00 0.01 0.01 0.01 0.02 0.02 0.02 0.03 0.04 0.04 0.04 0.04 0.04 0.05 0.07 0.08 0.09 0.12 0.13 0.15 0.16 0.16 0.15 0.15 0.14 0.13 0.11 0.08 0.06 0.05 0.06
0.00 0.00 0.00 0.00 0.00 0.01 0.01 0.02 0.02 0.02 0.01 0.01 0.01 0.01 0.01 0.01 0.01 0.01 0.02 0.03 0.05 0.05 0.06 0.07 0.07 0.07 0.08 0.08 0.09 0.11 0.13 0.15 0.18 0.17 0.16 0.14 0.12 0.11 0.09 0.07 0.06 0.04 0.04
0.00 0.00 0.00 0.00 0.00 0.01 0.01 0.02 0.02 0.02 0.02 0.01 0.01 0.01 0.01 0.01 0.01 0.01 0.03 0.05 0.06 0.07 0.08 0.09 0.08 0.09 0.09 0.10 0.10 0.11 0.12 0.14 0.17 0.18 0.17 0.15 0.13 0.11 0.10 0.07 0.06 0.05 0.04
0.00 0.00 0.00 0.00 0.00 0.00 0.01 0.01 0.02 0.03 0.02 0.02 0.01 0.01 0.01 0.01 0.00 0.01 0.04 0.08 0.11 0.09 0.09 0.09 0.09 0.10 0.12 0.10 0.10 0.11 0.12 0.15 0.17 0.18 0.17 0.17 0.15 0.13 0.10 0.07 0.05 0.03 0.02
0.00 0.00 0.00 0.00 0.00 0.01 0.01 0.02 0.03 0.03 0.03 0.03 0.02 0.02 0.02 0.01 0.02 0.02 0.03 0.09 0.11 0.11 0.12 0.13 0.11 0.12 0.13 0.14 0.14 0.14 0.15 0.13 0.14 0.16 0.17 0.17 0.16 0.11 0.07 0.05 0.04 0.02 0.02
0.00 0.00 0.00 0.00 0.00 0.01 0.01 0.02 0.03 0.04 0.04 0.04 0.03 0.03 0.03 0.03 0.04 0.04 0.02 0.05 0.07 0.08 0.11 0.12 0.12 0.15 0.16 0.14 0.17 0.19 0.18 0.18 0.16 0.14 0.15 0.14 0.11 0.09 0.06 0.04 0.03 0.02 0.01
0.00 0.00 0.00 0.01 0.01 0.01 0.02 0.02 0.03 0.05 0.06 0.05 0.06 0.05 0.05 0.04 0.04 0.03 0.03 0.02 0.05 0.07 0.09 0.10 0.11 0.16 0.17 0.17 0.16 0.17 0.16 0.17 0.15 0.11 0.08 0.07 0.06 0.05 0.05 0.04 0.02 0.01 0.01
0.00 0.00 0.01 0.01 0.01 0.03 0.03 0.03 0.04 0.06 0.08 0.08 0.07 0.08 0.07 0.07 0.05 0.04 0.03 0.03 0.04 0.05 0.06 0.08 0.09 0.14 0.19 0.19 0.15 0.12 0.12 0.12 0.10 0.08 0.06 0.05 0.04 0.02 0.02 0.02 0.01 0.01 0.01
0.00 0.01 0.01 0.01 0.02 0.03 0.04 0.06 0.07 0.09 0.11 0.12 0.10 0.09 0.09 0.08 0.06 0.04 0.03 0.04 0.06 0.06 0.08 0.08 0.10 0.11 0.13 0.11 0.10 0.09 0.08 0.06 0.04 0.04 0.03 0.02 0.01 0.01 0.00 0.01 0.00 0.00 0.00
0.01 0.01 0.01 0.01 0.02 0.02 0.04 0.07 0.09 0.12 0.16 0.17 0.15 0.12 0.11 0.11 0.09 0.05 0.04 0.05 0.07 0.09 0.09 0.10 0.10 0.08 0.07 0.07 0.06 0.07 0.06 0.04 0.02 0.02 0.01 0.01 0.01 0.01 0.00 0.00 0.00 0.00 0.00
0.01 0.01 0.02 0.02 0.02 0.02 0.05 0.07 0.10 0.14 0.20 0.23 0.22 0.19 0.16 0.14 0.11 0.07 0.04 0.05 0.07 0.10 0.10 0.08 0.07 0.06 0.05 0.05 0.04 0.04 0.03 0.02 0.01 0.00 0.00 0.00 0.00 0.00 0.00 0.00 0.00 0.00 0.00
0.02 0.02 0.02 0.02 0.02 0.03 0.06 0.08 0.09 0.14 0.21 0.27 0.28 0.26 0.21 0.17 0.14 0.10 0.06 0.04 0.05 0.06 0.06 0.06 0.05 0.03 0.03 0.03 0.02 0.01 0.01 0.00 0.00 0.00 0.00 0.00 0.00 0.00 0.00 0.00 0.00 0.00 0.00
0.02 0.02 0.02 0.02 0.02 0.04 0.06 0.08 0.10 0.13 0.20 0.27 0.30 0.29 0.27 0.23 0.17 0.11 0.06 0.03 0.03 0.04 0.04 0.04 0.04 0.02 0.01 0.01 0.01 0.00 0.00 0.00 0.00 0.00 0.00 0.00 0.00 0.00 0.00 0.00 0.00 0.00 0.00
0.02 0.02 0.02 0.02 0.03 0.05 0.07 0.09 0.11 0.13 0.17 0.25 0.31 0.30 0.30 0.26 0.19 0.13 0.07 0.03 0.02 0.02 0.02 0.02 0.02 0.01 0.00 0.00 0.00 0.00 0.00 0.00 0.00 0.00 0.00 0.00 0.00 0.00 0.00 0.00 0.00 0.00 0.00
0.03 0.03 0.03 0.03 0.04 0.06 0.09 0.10 0.10 0.11 0.14 0.21 0.28 0.30 0.30 0.25 0.20 0.15 0.10 0.05 0.02 0.02 0.01 0.01 0.01 0.00 0.00 0.00 0.00 0.00 0.00 0.00 0.00 0.00 0.00 0.00 0.00 0.00 0.00 0.00 0.00 0.00 0.00
0.04 0.04 0.04 0.04 0.05 0.07 0.11 0.13 0.13 0.14 0.18 0.22 0.23 0.26 0.29 0.25 0.19 0.15 0.12 0.09 0.03 0.01 0.01 0.01 0.00 0.00 0.00 0.00 0.00 0.00 0.00 0.00 0.00 0.00 0.00 0.00 0.00 0.00 0.00 0.00 0.00 0.00 0.00
0.04 0.04 0.04 0.05 0.06 0.07 0.12 0.15 0.15 0.20 0.26 0.29 0.27 0.28 0.27 0.20 0.16 0.13 0.12 0.10 0.05 0.02 0.01 0.00 0.00 0.00 0.00 0.00 0.00 0.00 0.00 0.00 0.00 0.00 0.00 0.00 0.00 0.00 0.00 0.00 0.00 0.00 0.00
0.04 0.04 0.05 0.05 0.07 0.08 0.12 0.14 0.16 0.21 0.29 0.33 0.31 0.32 0.30 0.19 0.15 0.13 0.11 0.08 0.04 0.01 0.01 0.00 0.00 0.00 0.00 0.00 0.00 0.00 0.00 0.00 0.00 0.00 0.00 0.00 0.00 0.00 0.00 0.00 0.00 0.00 0.00
0.05 0.04 0.04 0.05 0.07 0.10 0.14 0.14 0.18 0.26 0.30 0.33 0.32 0.28 0.24 0.18 0.14 0.12 0.09 0.05 0.03 0.01 0.01 0.00 0.00 0.00 0.00 0.00 0.00 0.00 0.00 0.00 0.00 0.00 0.00 0.00 0.00 0.00 0.00 0.00 0.00 0.00 0.00
0.04 0.04 0.04 0.05 0.06 0.08 0.13 0.14 0.18 0.26 0.31 0.30 0.27 0.22 0.16 0.11 0.09 0.07 0.05 0.04 0.02 0.01 0.01 0.00 0.00 0.00 0.00 0.00 0.00 0.00 0.00 0.00 0.00 0.00 0.00 0.00 0.00 0.00 0.00 0.00 0.00 0.00 0.00
0.05 0.05 0.05 0.05 0.06 0.08 0.11 0.15 0.20 0.24 0.27 0.29 0.24 0.17 0.14 0.10 0.07 0.04 0.03 0.02 0.02 0.01 0.00 0.00 0.00 0.00 0.00 0.00 0.00 0.00 0.00 0.00 0.00 0.00 0.00 0.00 0.00 0.00 0.00 0.00 0.00 0.00 0.00
0.06 0.06 0.05 0.05 0.07 0.09 0.11 0.16 0.20 0.22 0.22 0.24 0.20 0.12 0.10 0.09 0.06 0.03 0.02 0.01 0.01 0.00 0.00 0.00 0.00 0.00 0.00 0.00 0.00 0.00 0.00 0.00 0.00 0.00 0.00 0.00 0.00 0.00 0.00 0.00 0.00 0.00 0.00
0.05 0.06 0.06 0.06 0.08 0.11 0.13 0.16 0.19 0.19 0.16 0.16 0.15 0.09 0.07 0.07 0.04 0.02 0.01 0.01 0.00 0.00 0.00 0.00 0.00 0.00 0.00 0.00 0.00 0.00 0.00 0.00 0.00 0.00 0.00 0.00 0.00 0.00 0.00 0.00 0.00 0.00 0.00
0.04 0.05 0.06 0.06 0.08 0.11 0.12 0.13 0.15 0.14 0.10 0.09 0.10 0.07 0.05 0.04 0.03 0.01 0.01 0.01 0.00 0.00 0.00 0.00 0.00 0.00 0.00 0.00 0.00 0.00 0.00 0.00 0.00 0.00 0.00 0.00 0.00 0.00 0.00 0.00 0.00 0.00 0.00
0.04 0.05 0.05 0.06 0.08 0.10 0.10 0.11 0.12 0.10 0.07 0.06 0.07 0.06 0.04 0.03 0.02 0.01 0.01 0.00 0.00 0.00 0.00 0.00 0.00 0.00 0.00 0.00 0.00 0.00 0.00 0.00 0.00 0.00 0.00 0.00 0.00 0.00 0.00 0.00 0.00 0.00 0.00
MSLP
1010.54 1010.13 1009.73 1009.33 1008.95 1008.61 1008.30 1008.05 1007.87 1007.75 1007.70 1007.71 1007.76 1007.83 1007.89 1007.91 1007.86 1007.71 1007.44 1007.04 1006.49 1005.82 1005.05 1004.22 1003.39 1002.62 1001.98 1001.51 1001.25 1001.22 1001.40 1001.77 1002.28 1002.88 1003.51 1004.13 1004.71 1005.24 1005.73 1006.18 1006.63 1007.09 1007.58
1010.60 1010.13 1009.66 1009.19 1008.73 1008.30 1007.90 1007.56 1007.28 1007.08 1006.97 1006.92 1006.94 1007.00 1007.06 1007.09 1007.05 1006.91 1006.64 1006.20 1005.60 1004.85 1003.99 1003.07 1002.16 1001.32 1000.64 1000.19 999.99 1000.07 1000.42 1000.99 1001.72 1002.55 1003.41 1004.23 1004.99 1005.65 1006.22 1006.71 1007.16 1007.59 1008.01
1010.59 1010.09 1009.58 1009.07 1008.56 1008.06 1007.60 1007.20 1006.86 1006.60 1006.43 1006.34 1006.33 1006.37 1006.42 1006.45 1006.41 1006.26 1005.97 1005.50 1004.85 1004.04 1003.10 1002.10 1001.12 1000.23 999.52 999.07 998.93 999.10 999.57 1000.31 1001.23 1002.26 1003.31 1004.32 1005.23 1006.00 1006.65 1007.17 1007.61 1008.00 1008.37
1010.49 1009.99 1009.47 1008.94 1008.40 1007.89 1007.40 1006.96 1006.59 1006.30 1006.10 1005.99 1005.95 1005.97 1006.01 1006.03 1005.99 1005.83 1005.53 1005.04 1004.37 1003.52 1002.54 1001.50 1000.47 999.55 998.83 998.38 998.27 998.50 999.05 999.89 1000.94 1002.10 1003.29 1004.43 1005.44 1006.29 1006.98 1007.52 1007.94 1008.29 1008.61
1010.28 1009.78 1009.27 1008.75 1008.22 1007.71 1007.23 1006.80 1006.43 1006.14 1005.93 1005.80 1005.75 1005.76 1005.79 1005.81 1005.77 1005.62 1005.33 1004.85 1004.19 1003.36 1002.40 1001.36 1000.34 999.43 998.71 998.27 998.16 998.41 999.00 999.87 1000.96 1002.17 1003.41 1004.59 1005.64 1006.51 1007.21 1007.74 1008.13 1008.43 1008.69
1009.93 1009.45 1008.95 1008.46 1007.96 1007.48 1007.03 1006.63 1006.28 1006.00 1005.79 1005.67 1005.62 1005.62 1005.65 1005.68 1005.66 1005.54 1005.30 1004.89 1004.30 1003.54 1002.65 1001.70 1000.74 999.88 999.19 998.78 998.67 998.90 999.46 1000.29 1001.34 1002.51 1003.71 1004.84 1005.85 1006.69 1007.35 1007.84 1008.19 1008.44 1008.66
1009.43 1008.97 1008.50 1008.03 1007.57 1007.13 1006.73 1006.36 1006.04 1005.78 1005.59 1005.47 1005.42 1005.43 1005.48 1005.52 1005.54 1005.49 1005.33 1005.03 1004.57 1003.96 1003.22 1002.40 1001.57 1000.82 1000.20 999.82 999.71 999.90 1000.38 1001.12 1002.05 1003.10 1004.17 1005.20 1006.10 1006.85 1007.44 1007.86 1008.15 1008.36 1008.54
1008.78 1008.34 1007.89 1007.45 1007.03 1006.63 1006.26 1005.93 1005.64 1005.40 1005.22 1005.11 1005.07 1005.09 1005.15 1005.24 1005.32 1005.35 1005.31 1005.16 1004.88 1004.46 1003.93 1003.31 1002.67 1002.06 1001.55 1001.23 1001.12 1001.26 1001.64 1002.24 1003.00 1003.88 1004.77 1005.63 1006.39 1007.02 1007.50 1007.85 1008.09 1008.27 1008.42
1008.02 1007.58 1007.16 1006.75 1006.35 1005.98 1005.64 1005.33 1005.06 1004.84 1004.67 1004.57 1004.53 1004.55 1004.64 1004.77 1004.92 1005.06 1005.16 1005.18 1005.10 1004.91 1004.61 1004.22 1003.79 1003.36 1003.00 1002.74 1002.65 1002.74 1003.02 1003.48 1004.06 1004.74 1005.44 1006.11 1006.71 1007.21 1007.59 1007.87 1008.06 1008.22 1008.36
1007.18 1006.75 1006.35 1005.95 1005.58 1005.24 1004.92 1004.62 1004.36 1004.15 1003.98 1003.87 1003.84 1003.88 1003.99 1004.16 1004.38 1004.63 1004.86 1005.05 1005.17 1005.20 1005.13 1004.98 1004.77 1004.53 1004.30 1004.14 1004.08 1004.14 1004.33 1004.66 1005.08 1005.58 1006.09 1006.59 1007.05 1007.42 1007.72 1007.95 1008.12 1008.27 1008.42
1006.30 1005.90 1005.51 1005.14 1004.79 1004.46 1004.15 1003.87 1003.61 1003.40 1003.23 1003.12 1003.09 1003.14 1003.28 1003.50 1003.78 1004.11 1004.46 1004.79 1005.07 1005.29 1005.43 1005.48 1005.46 1005.39 1005.30 1005.23 1005.22 1005.27 1005.41 1005.64 1005.94 1006.29 1006.67 1007.04 1007.38 1007.67 1007.92 1008.12 1008.29 1008.44 1008.61
1005.44 1005.06 1004.70 1004.35 1004.02 1003.71 1003.41 1003.14 1002.89 1002.68 1002.52 1002.42 1002.40 1002.47 1002.63 1002.88 1003.21 1003.60 1004.03 1004.46 1004.86 1005.21 1005.49 1005.69 1005.82 1005.89 1005.92 1005.94 1005.97 1006.04 1006.16 1006.34 1006.57 1006.84 1007.12 1007.42 1007.69 1007.94 1008.17 1008.37 1008.55 1008.74 1008.93
1004.61 1004.27 1003.94 1003.62 1003.32 1003.03 1002.74 1002.48 1002.25 1002.05 1001.91 1001.83 1001.83 1001.92 1002.11 1002.39 1002.75 1003.18 1003.65 1004.12 1004.58 1005.00 1005.36 1005.65 1005.87 1006.03 1006.15 1006.24 1006.33 1006.44 1006.57 1006.75 1006.96 1007.20 1007.45 1007.72 1007.97 1008.22 1008.46 1008.68 1008.89 1009.11 1009.33
1003.82 1003.53 1003.24 1002.95 1002.68 1002.41 1002.14 1001.90 1001.69 1001.52 1001.41 1001.36 1001.40 1001.53 1001.75 1002.06 1002.44 1002.87 1003.35 1003.83 1004.29 1004.72 1005.09 1005.41 1005.67 1005.88 1006.05 1006.20 1006.35 1006.51 1006.69 1006.90 1007.14 1007.40 1007.67 1007.95 1008.22 1008.50 1008.76 1009.01 1009.26 1009.50 1009.75
1003.07 1002.81 1002.56 1002.31 1002.06 1001.81 1001.57 1001.35 1001.17 1001.03 1000.96 1000.97 1001.06 1001.24 1001.50 1001.83 1002.23 1002.66 1003.12 1003.57 1004.00 1004.39 1004.74 1005.04 1005.30 1005.52 1005.73 1005.93 1006.13 1006.36 1006.61 1006.88 1007.17 1007.48 1007.81 1008.13 1008.44 1008.75 1009.04 1009.33 1009.60 1009.87 1010.12
1002.31 1002.09 1001.87 1001.64 1001.41 1001.18 1000.96 1000.76 1000.61 1000.51 1000.49 1000.56 1000.71 1000.94 1001.25 1001.62 1002.03 1002.46 1002.89 1003.31 1003.68 1004.02 1004.32 1004.59 1004.82 1005.05 1005.28 1005.53 1005.80 1006.09 1006.42 1006.77 1007.14 1007.52 1007.90 1008.27 1008.62 1008.96 1009.28 1009.58 1009.87 1010.14 1010.40
1001.52 1001.33 1001.13 1000.91 1000.69 1000.46 1000.25 1000.07 999.94 999.88 999.91 1000.03 1000.25 1000.55 1000.91 1001.32 1001.75 1002.19 1002.60 1002.97 1003.31 1003.60 1003.85 1004.09 1004.31 1004.55 1004.81 1005.10 1005.44 1005.81 1006.22 1006.65 1007.10 1007.55 1007.98 1008.39 1008.77 1009.12 1009.45 1009.75 1010.03 1010.30 1010.55
1000.70 1000.52 1000.33 1000.11 999.87 999.64 999.42 999.25 999.14 999.11 999.18 999.35 999.63 999.98 1000.40 1000.85 1001.31 1001.76 1002.17 1002.53 1002.84 1003.10 1003.34 1003.57 1003.80 1004.06 1004.36 1004.71 1005.12 1005.57 1006.06 1006.57 1007.08 1007.58 1008.05 1008.49 1008.88 1009.23 1009.54 1009.83 1010.09 1010.33 1010.56
999.86 999.68 999.48 999.25 999.00 998.75 998.52 998.34 998.23 998.22 998.32 998.53 998.85 999.26 999.72 1000.21 1000.71 1001.17 1001.60 1001.96 1002.28 1002.55 1002.79 1003.04 1003.30 1003.61 1003.97 1004.39 1004.88 1005.40 1005.97 1006.54 1007.10 1007.63 1008.12 1008.55 1008.93 1009.26 1009.54 1009.80 1010.03 1010.25 1010.45
999.03 998.85 998.64 998.40 998.13 997.86 997.61 997.42 997.31 997.31 997.42 997.65 998.00 998.44 998.93 999.46 999.98 1000.48 1000.92 1001.31 1001.65 1001.96 1002.24 1002.53 1002.86 1003.23 1003.66 1004.15 1004.71 1005.30 1005.92 1006.53 1007.12 1007.66 1008.15 1008.56 1008.91 1009.21 1009.45 1009.67 1009.87 1010.06 1010.25
998.27 998.10 997.88 997.63 997.35 997.07 996.81 996.61 996.49 996.48 996.60 996.83 997.19 997.64 998.16 998.70 999.24 999.76 1000.23 1000.66 1001.04 1001.39 1001.73 1002.08 1002.47 1002.91 1003.42 1003.98 1004.60 1005.24 1005.90 1006.53 1007.12 1007.66 1008.12 1008.50 1008.81 1009.06 1009.27 1009.45 1009.62 1009.79 1009.97
997.64 997.48 997.27 997.03 996.75 996.46 996.20 995.99 995.87 995.86 995.97 996.20 996.55 996.99 997.50 998.05 998.60 999.12 999.62 1000.07 1000.49 1000.89 1001.29 1001.71 1002.17 1002.68 1003.25 1003.86 1004.52 1005.19 1005.86 1006.49 1007.07 1007.58 1008.00 1008.34 1008.61 1008.82 1009.00 1009.15 1009.30 1009.46 1009.64
997.17 997.03 996.85 996.63 996.37 996.10 995.85 995.65 995.53 995.51 995.61 995.83 996.16 996.58 997.07 997.60 998.13 998.66 999.16 999.63 1000.08 1000.52 1000.97 1001.44 1001.95 1002.51 1003.12 1003.77 1004.44 1005.12 1005.78 1006.39 1006.93 1007.40 1007.78 1008.08 1008.31 1008.49 1008.64 1008.77 1008.92 1009.08 1009.27
996.87 996.77 996.62 996.43 996.20 995.96 995.73 995.55 995.44 995.42 995.52 995.72 996.03 996.42 996.88 997.37 997.88 998.39 998.88 999.35 999.82 1000.28 1000.75 1001.26 1001.80 1002.38 1003.01 1003.66 1004.33 1004.99 1005.62 1006.19 1006.69 1007.11 1007.45 1007.71 1007.91 1008.07 1008.21 1008.34 1008.49 1008.67 1008.87
996.72 996.65 996.54 996.38 996.19 995.99 995.79 995.63 995.54 995.53 995.62 995.81 996.09 996.45 996.87 997.33 997.80 998.28 998.75 999.21 999.67 1000.13 1000.62 1001.13 1001.68 1002.27 1002.89 1003.53 1004.17 1004.80 1005.39 1005.91 1006.37 1006.74 1007.04 1007.27 1007.45 1007.60 1007.73 1007.88 1008.04 1008.24 1008.47
996.67 996.63 996.54 996.42 996.26 996.08 995.92 995.79 995.72 995.72 995.81 995.99 996.25 996.58 996.96 997.38 997.81 998.26 998.70 999.14 999.58 1000.04 1000.52 1001.02 1001.57 1002.14 1002.74 1003.35 1003.96 1004.54 1005.08 1005.56 1005.98 1006.31 1006.58 1006.79 1006.96 1007.10 1007.25 1007.41 1007.60 1007.82 1008.07
Thickness
5678 5679 5680 5682 5683 5685 5686 5687 5687 5686 5685 5683 5682 5680 5680 5679 5679 5678 5678 5677 5677 5678 5679 5680 5681 5681 5683 5686 5688 5689 5690 5688 5684 5684 5685 5686 5686 5687 5686 5686 5685 5685 5683
5665 5666 5667 5668 5670 5673 5675 5676 5677 5677 5677 5677 5676 5674 5673 5673 5672 5671 5671 5672 5671 5672 5673 5674 5675 5676 5676 5678 5680 5681 5682 5682 5679 5674 5672 5673 5673 5675 5675 5675 5675 5675 5673
5651 5652 5653 5654 5656 5659 5662 5664 5665 5666 5668 5668 5668 5667 5666 5666 5665 5665 5664 5664 5665 5666 5666 5667 5669 5669 5669 5671 5671 5673 5673 5673 5671 5667 5662 5661 5661 5662 5662 5663 5663 5662 5662
5636 5637 5638 5640 5642 5644 5648 5650 5652 5654 5656 5658 5658 5659 5659 5659 5658 5657 5656 5656 5656 5658 5658 5660 5661 5662 5662 5664 5664 5664 5664 5662 5659 5657 5653 5651 5651 5651 5652 5651 5650 5650 5652
5620 5621 5622 5625 5627 5629 5631 5635 5638 5640 5643 5646 5647 5648 5650 5650 5650 5648 5648 5648 5648 5649 5650 5651 5652 5652 5653 5655 5657 5656 5655 5652 5649 5647 5644 5643 5641 5641 5641 5643 5642 5642 5642
5602 5603 5605 5606 5609 5611 5614 5618 5622 5625 5628 5632 5635 5637 5639 5641 5637 5635 5636 5638 5639 5640 5641 5642 5642 5642 5642 5643 5644 5645 5645 5644 5641 5639 5636 5634 5632 5633 5634 5635 5635 5635 5634
5583 5584 5586 5588 5590 5593 5596 5600 5603 5608 5612 5616 5620 5623 5626 5628 5625 5624 5624 5628 5630 5631 5631 5631 5632 5632 5633 5634 5633 5633 5632 5632 5633 5632 5629 5627 5625 5626 5627 5628 5628 5629 5628
5564 5565 5567 5568 5571 5573 5576 5580 5585 5590 5595 5600 5605 5609 5613 5616 5613 5613 5614 5619 5621 5621 5621 5621 5621 5622 5622 5624 5625 5623 5621 5619 5621 5622 5620 5618 5618 5619 5620 5620 5619 5619 5619
5546 5547 5548 5549 5551 5554 5557 5562 5567 5573 5579 5585 5591 5596 5600 5603 5602 5603 5603 5610 5611 5611 5612 5612 5612 5612 5609 5612 5614 5611 5609 5606 5606 5607 5607 5606 5606 5609 5611 5614 5614 5615 5614
5531 5531 5532 5533 5534 5537 5541 5546 5552 5558 5564 5571 5578 5584 5589 5593 5593 5594 5594 5602 5603 5604 5603 5602 5601 5601 5599 5601 5604 5603 5601 5600 5599 5598 5597 5598 5600 5601 5604 5608 5611 5612 5611
5521 5521 5521 5522 5524 5527 5531 5535 5540 5545 5552 5558 5565 5571 5578 5583 5584 5585 5586 5594 5598 5597 5597 5596 5593 5590 5591 5592 5595 5596 5594 5595 5595 5595 5595 5595 5595 5597 5600 5601 5604 5608 5608
5516 5516 5516 5517 5520 5524 5526 5529 5532 5535 5540 5547 5554 5561 5567 5572 5576 5576 5578 5581 5588 5591 5591 5591 5586 5581 5582 5584 5586 5584 5586 5590 5592 5592 5592 5592 5592 5592 5593 5594 5595 5597 5598
5513 5513 5513 5514 5516 5518 5521 5524 5526 5529 5534 5539 5546 5552 5558 5563 5567 5568 5568 5572 5577 5583 5584 5580 5576 5573 5573 5576 5575 5578 5581 5587 5589 5589 5588 5588 5588 5587 5587 5588 5589 5590 5592
5510 5510 5511 5512 5515 5517 5518 5520 5522 5525 5528 5531 5538 5543 5549 5555 5560 5562 5563 5564 5566 5571 5572 5568 5566 5567 5571 5570 5571 5575 5582 5585 5587 5586 5585 5585 5585 5585 5588 5589 5590 5591 5592
5506 5507 5509 5510 5512 5512 5514 5514 5516 5518 5521 5522 5529 5535 5542 5549 5556 5559 5562 5564 5567 5570 5568 5568 5569 5570 5572 5573 5575 5577 5579 5580 5582 5583 5583 5583 5584 5585 5586 5588 5589 5591 5591
5501 5503 5504 5506 5508 5508 5509 5511 5512 5512 5513 5514 5517 5523 5534 5541 5546 5550 5555 5560 5561 5562 5566 5570 5572 5574 5575 5576 5576 5576 5578 5579 5580 5581 5582 5583 5583 5584 5584 5585 5587 5588 5587
5495 5497 5498 5500 5501 5503 5504 5507 5509 5511 5509 5510 5514 5520 5526 5534 5539 5543 5547 5550 5553 5555 5566 5570 5573 5575 5577 5577 5578 5578 5578 5579 5579 5580 5581 5581 5582 5582 5582 5583 5583 5583 5582
5490 5492 5492 5494 5496 5498 5500 5503 5506 5509 5511 5515 5516 5519 5524 5530 5536 5539 5542 5544 5549 5555 5568 5571 5573 5576 5577 5578 5579 5579 5578 5577 5577 5578 5578 5579 5580 5580 5580 5580 5579 5578 5577
5485 5487 5488 5490 5492 5495 5498 5501 5505 5508 5511 5515 5519 5522 5525 5529 5532 5535 5540 5552 5557 5562 5570 5572 5574 5576 5577 5578 5579 5578 5577 5577 5577 5577 5577 5576 5578 5578 5577 5577 5574 5563 5570
5483 5484 5484 5487 5490 5493 5496 5501 5505 5508 5512 5518 5524 5528 5528 5532 5537 5537 5546 5557 5562 5566 5572 5574 5576 5577 5577 5577 5577 5577 5577 5576 5575 5576 5576 5575 5575 5575 5573 5571 5570 5568 5567
5483 5485 5484 5486 5490 5494 5498 5502 5507 5511 5516 5522 5529 5534 5536 5543 5547 5549 5555 5562 5567 5571 5575 5577 5578 5577 5577 5576 5577 5577 5577 5576 5576 5576 5575 5573 5573 5571 5570 5569 5567 5565 5563
5483 5485 5487 5489 5493 5498 5503 5507 5512 5517 5523 5530 5535 5537 5538 5549 5554 5558 5562 5567 5571 5575 5579 5580 5581 5580 5580 5579 5578 5578 5578 5577 5575 5574 5573 5571 5569 5568 5567 5565 5563 5560 5557
5485 5488 5491 5494 5499 5502 5508 5514 5520 5525 5532 5538 5543 5547 5549 5557 5562 5566 5569 5573 5575 5578 5581 5581 5582 5582 5582 5580 5579 5578 5579 5577 5576 5573 5571 5569 5566 5564 5562 5560 5557 5554 5552
5491 5493 5498 5503 5508 5513 5519 5525 5531 5536 5542 5547 5552 5556 5560 5565 5569 5572 5575 5577 5578 5580 5581 5582 5583 5583 5581 5580 5579 5579 5579 5577 5574 5571 5568 5566 5564 5562 5559 5555 5553 5551 5548
5496 5501 5505 5510 5516 5522 5528 5534 5541 5546 5550 5554 5559 5563 5567 5572 5575 5578 5579 5580 5581 5582 5582 5582 5583 5582 5580 5578 5578 5578 5575 5571 5569 5568 5564 5562 5560 5558 5555 5552 5550 5547 5544
5504 5509 5513 5519 5524 5530 5537 5543 5550 5554 5558 5562 5566 5570 5574 5577 5580 5582 5583 5584 5584 5584 5582 5583 5583 5582 5580 5578 5576 5573 5568 5565 5562 5559 5559 5558 5556 5554 5551 5549 5546 5543 5539